CZ-6A DEB, 56641

Orbit data source: Space-Track

CZ-6A DEB, 56641 is space debris in SSO originally from a launch on Fri, 11 Nov 2022 UTC launched from the Taiyaun Space Center, China (TSC). Debris objects in space refer to the collection of defunct objects orbiting the Earth. Examples of debris include non-operational satellites, rocket bodies, and fragments generated from explosions, collisions, or faulty payload assembly.

Loading next visibility...
Identifier
56641, 2022-151AFR
Orbit
SSO
Country
Flag of CNCN / PRC
Related business
Manufacturer
SAST
Mission
Spacecraft
Bus & Motor
Unknown
Mass
Unknown
Launch date (UTC)
2022-11-11 (4 years ago)
Launch vehicle
Unknown
Launch site
Taiyaun Space Center, China (TSC)
Object type
Payload
Rocket body
Debris
Shape & HBR
Unknown shape, 0.1 m
Radar Cross Section
Medium (>0.1 m² and <1 m²)

Expand to show TLE details & history
Last TLE update: 11 hours ago

TLE from 11 hours ago
0 CZ-6A DEB
1 56641U 22151AFR 26236.25955601  .00003423  00000-0  37836-3 0  9997
2 56641  98.6703 347.3081 0126632 325.9840  33.3299 14.82505091183820
Epoch: 2026-08-24T06:13Z
TLE epoch observation values (Epoch: 2026-08-24T06:13:45.639Z)
Latitude
-0°
Longitude
-78.67588°
Altitude
550.7 km
Speed
7.626 km/s
True Right ascension
23h 09m 13s
True Declination
0° 00' 00"
Sunlit
Object was in full shadow at epoch
Visualization orbit readout
Latitude
Unknown
Longitude
Unknown
Altitude
Unknown
Speed
Unknown
Apparent Right ascension
Unknown
Apparent Declination
Unknown
Sunlit
N/A
Visualization observer readout
Local Sidereal Time
08:02:17
Azimuth
Unknown
Elevation
Unknown
Doppler factor
Unknown
Orbital elements
Apogee altitude
707.101 km
Perigee altitude
529.901 km
Semi-major axis
6,996.638 km
Eccentricity
0.01266
Inclination
98.6703°
RAAN
347.3081°
Arg. of periapsis
325.984°
True anomaly
34.13787°
Mean anomaly
33.3299°
Eccentric anomaly
33.73281°
Mean motion
3.70859 °/min
Orbital period
97.07 mins
BSTAR
0.00037836
Loading maneuver chart data...
Computing Atmospheric mass density...
Loading historical data...
Loading historical data...
Loading historical data...
Loading historical data...
Loading historical data...
Loading historical data...
Loading historical data...

Documentation

Showing up to 5 results
|